www.pogodaiklimat.ru

Погода и климат >> Архив погоды >> Бразилия >> Comodoro


ПОГОДА в Comodoro

  • Прогноз погоды в Comodoro
  • Монитор погоды в Comodoro
  • Климат города

АРХИВ ПОГОДЫ в Comodoro

Время (UTC), дата Ветер
(напр.,м/с)
 
Видим.   Явления Облачность Т
(С)
Тd
(С)
f
(%)
Тe
(С)
Тes
(С)
Комфортность P
(гПа)
Po
(гПа)
Тmin
(С)
Tmax
(С)
R
(мм)
R24
(мм)
S
(см)
01 16.09 штиль 0
{2}
н/о н/о +20.3 +19.1 93 +24 +24 комфорт 1010.6 944.9
02 16.09 СВ 1
{2}
н/о н/о +20.3 +19.2 93 +26 +26 душно 1011.3 945.6
03 16.09
{2}
н/о н/о +20.5 +18.6 89 1011.3 945.6 0.2
04 16.09 штиль 0
{2}
н/о н/о +20.1 +18.2 89 +23 +23 комфорт 1010.8 945.1
05 16.09 штиль 0
{1}
н/о н/о +19.1 +18.0 93 +21 +21 комфорт 1010.6 944.7
06 16.09 штиль 0
{1}
н/о н/о +18.5 +17.6 94 +19 +19 1009.9 943.9
07 16.09 СЗ 1
{1}
н/о н/о +18.4 +17.5 94 +21 +21 комфорт 1009.8 943.8
08 16.09 штиль 0
{1}
н/о н/о +17.7 +16.7 94 +18 +18 1009.8 943.6
09 16.09 штиль 0
{1}
н/о н/о +17.4 +16.6 95 +17 +17 1010.2 943.9
10 16.09 штиль 0 н/о н/о +16.7 +15.8 94 +17 +17 1011.1 944.6
11 16.09 штиль 0
{2}
н/о н/о +19.1 +17.8 92 +21 +21 комфорт 1011.5 945.5
12 16.09 СЗ 1
{2}
н/о н/о +23.3 +18.5 74 +29 +29 душно 1012.0 946.9
13 16.09 СЗ 2
{5}
н/о н/о +25.1 +19.7 72 +31 +31 очень
душно
1012.6 947.8
14 16.09 З 2
{5}
н/о н/о +25.5 +20.3 73 +31 +31 очень
душно
1012.8 948.1
15 16.09 СЗ 2
{4}
н/о н/о +24.6 +20.1 76 +30 +30 очень
душно
1012.8 947.9
16 16.09 СЗ 2
{4}
н/о н/о +25.3 +20.1 73 +31 +31 очень
душно
1011.9 947.2
17 16.09 СЗ 2
{3}
н/о н/о +26.9 +20.9 70 +34 +34 очень
душно
1010.5 946.2
18 16.09 СЗ 2
{4}
н/о н/о +28.4 +21.3 65 +36 +36 очень
душно
1008.9 945.0
19 16.09 СЗ 3
{5}
н/о н/о +27.6 +18.7 58 +33 +33 очень
душно
1008.1 944.1
20 16.09 СЗ 2
{5}
н/о н/о +26.6 +19.3 64 +32 +32 очень
душно
1007.9 943.7
21 16.09 СЗ 2
{3}
н/о н/о +26.3 +18.9 64 +31 +31 душно 1008.3 944.0
22 16.09 С 1
{3}
н/о н/о +24.3 +19.2 73 +29 +29 душно 1008.8 944.1
23 16.09 штиль 0
{1}
н/о н/о +21.2 +19.4 89 +26 +26 душно 1010.6 945.1
00 17.09 штиль 0
{1}
н/о н/о +20.1 +18.8 92 +23 +23 комфорт 1012.0 946.2
01 17.09 штиль 0
{1}
н/о н/о +20.8 +19.3 91 +25 +25 комфорт 1013.0 947.3
02 17.09
{2}
н/о н/о +22.5 +19.9 85 1013.4 948.0
03 17.09 В 1
{3}
н/о н/о +21.0 +18.7 87 +27 +27 душно 1013.4 947.7
04 17.09 штиль 0
{2}
н/о н/о +20.3 +18.9 92 +24 +24 комфорт 1013.1 947.3
05 17.09 штиль 0
{1}
н/о н/о +20.2 +19.0 93 +24 +24 комфорт 1012.1 946.3
06 17.09 штиль 0
{1}
н/о н/о +19.4 +18.4 94 +22 +22 комфорт 1011.2 945.3
07 17.09 штиль 0 н/о н/о +19.4 +18.4 94 +22 +22 комфорт 1010.4 944.5
08 17.09 штиль 0 н/о н/о +19.0 +18.1 95 +21 +21 комфорт 1010.0 944.1
09 17.09 штиль 0 н/о н/о +19.1 +18.2 95 +21 +21 комфорт 1010.4 944.5
10 17.09 З 1
{1}
н/о н/о +19.6 +18.6 94 +24 +24 комфорт 1010.8 945.0
11 17.09 штиль 0
{1}
н/о н/о +20.4 +19.4 94 +24 +24 комфорт 1011.8 946.1
12 17.09 ЮЗ 1
{2}
н/о н/о +24.6 +20.0 76 +30 +30 очень
душно
1012.3 947.4
13 17.09 ЮЗ 2
{3}
н/о н/о +27.4 +19.9 64 +34 +34 очень
душно
1012.4 948.1
14 17.09 ЮЗ 1
{3}
н/о н/о +29.4 +18.0 50 +34 +34 очень
душно
1011.9 948.1
15 17.09 СЗ 2
{4}
н/о н/о +30.5 +16.7 43 +34 +34 очень
душно
1011.2 947.6
16 17.09 З 2
{4}
н/о н/о +32.4 +15.7 37 +35 +35 душно 1009.8 946.7
17 17.09 З 3
{5}
н/о н/о +31.3 +14.7 37 +33 +33 жарко 1009.1 945.8
18 17.09 З 3
{5}
н/о н/о +29.8 +14.6 40 +32 +32 душно 1008.7 945.1
19 17.09 З 3
{4}
н/о н/о +31.8 +13.1 32 +33 +33 жарко 1006.9 943.9
20 17.09 З 2
{4}
н/о н/о +29.9 +15.7 42 +33 +33 душно 1006.9 943.5
21 17.09 З 2
{4}
н/о н/о +27.8 +16.4 50 +31 +31 душно 1007.8 943.9
22 17.09 штиль 0
{2}
н/о н/о +25.1 +18.8 68 +30 +30 душно 1009.1 944.5
23 17.09 штиль 0
{1}
н/о н/о +23.0 +19.1 79 +29 +29 очень
душно
1010.3 945.2
00 18.09 штиль 0
{1}
н/о н/о +22.5 +19.7 84 +29 +29 очень
душно
1011.5 946.2
01 18.09 штиль 0
{1}
н/о н/о +21.1 +19.2 89 +26 +26 душно 1012.6 947.0
02 18.09 штиль 0
{1}
н/о н/о +20.8 +18.8 88 +25 +25 комфорт 1013.0 947.3
03 18.09 штиль 0
{1}
н/о н/о +20.2 +18.7 91 +23 +23 комфорт 1012.9 947.1
04 18.09 штиль 0
{1}
н/о н/о +20.0 +18.3 90 +23 +23 комфорт 1012.1 946.3
05 18.09 штиль 0
{1}
н/о н/о +19.3 +17.8 91 +21 +21 комфорт 1011.3 945.4
06 18.09 штиль 0
{1}
н/о н/о +18.9 +17.7 93 +20 +20 1011.1 945.1
07 18.09 штиль 0
{1}
н/о н/о +18.8 +17.7 93 +20 +20 1010.5 944.5
08 18.09 штиль 0
{1}
н/о н/о +19.8 +18.7 93 +22 +22 комфорт 1009.6 943.9
09 18.09 В 1
{1}
н/о н/о +20.0 +18.5 91 +25 +25 комфорт 1010.0 944.3
10 18.09 штиль 0
{2}
н/о н/о +19.9 +18.1 89 +23 +23 комфорт 1011.0 945.2
11 18.09 В 1
{2}
н/о н/о +22.6 +18.9 80 +28 +28 душно 1011.5 946.3
12 18.09 штиль 0
{2}
н/о н/о +25.3 +18.5 66 +30 +30 душно 1012.2 947.5
13 18.09 С 2
{3}
н/о н/о +27.7 +19.3 60 +33 +33 очень
душно
1012.3 948.1
14 18.09 С 2
{4}
н/о н/о +29.2 +19.0 54 +35 +35 очень
душно
1011.7 947.8
15 18.09 С 2
{5}
н/о н/о +29.8 +17.5 48 +34 +34 очень
душно
1010.9 947.2
16 18.09 СЗ 1
{4}
н/о н/о +29.6 +18.3 51 +34 +34 очень
душно
1009.8 946.1
17 18.09 С 1
{4}
н/о н/о +32.0 +18.2 44 +37 +37 очень
душно
1007.8 944.7
18 18.09 СЗ 1
{3}
н/о н/о +28.7 +19.1 56 +34 +34 очень
душно
1007.5 943.8
19 18.09 СЗ 1
{2}
н/о н/о +27.7 +19.7 62 +34 +34 очень
душно
1007.3 943.4
20 18.09 З 2
{4}
н/о н/о +24.1 +20.6 81 +30 +30 очень
душно
1009.2 944.4
21 18.09 СЗ 1
{5}
н/о н/о +20.2 +18.7 91 +25 +25 комфорт 1009.8 944.2 2
22 18.09 С 1
{2}
н/о н/о +20.5 +19.0 91 +26 +26 душно 1009.2 943.7 0.6
23 18.09 С 1
{2}
н/о н/о +20.9 +19.4 91 +27 +27 душно 1009.4 943.9
00 19.09 С 1
{2}
н/о н/о +21.7 +19.5 87 +27 +27 душно 1009.7 944.4
01 19.09 С 1
{3}
н/о н/о +21.7 +19.6 88 +27 +27 душно 1010.2 944.9
02 19.09 ЮЗ 2
{3}
н/о н/о +21.4 +19.5 89 +26 +26 душно 1011.1 945.6
03 19.09 ЮВ 1
{3}
н/о н/о +20.5 +19.3 93 +26 +26 душно 1011.2 945.5
04 19.09 штиль 0
{2}
н/о н/о +19.9 +19.0 95 +23 +23 комфорт 1010.7 944.9
05 19.09 штиль 0
{1}
н/о н/о +19.6 +18.7 95 +22 +22 комфорт 1009.8 944.0
06 19.09 штиль 0
{1}
н/о н/о +19.1 +18.2 95 +21 +21 комфорт 1009.4 943.5
07 19.09 штиль 0 н/о н/о +18.4 +17.6 95 +19 +19 1010.3 944.2
08 19.09 штиль 0 н/о н/о +17.8 +17.0 95 +18 +18 1010.7 944.5
09 19.09 штиль 0 н/о н/о +18.1 +17.3 95 +18 +18 1011.3 945.1
10 19.09 штиль 0 н/о н/о +18.2 +17.4 95 +19 +19 1011.7 945.5
11 19.09 штиль 0 н/о н/о +19.9 +19.2 96 +23 +23 комфорт 1011.9 946.1
12 19.09 штиль 0 н/о н/о +23.6 +21.2 86 +30 +30 очень
душно
1012.0 946.9
13 19.09 С 1
{2}
н/о н/о +26.4 +19.0 64 +32 +32 очень
душно
1011.6 947.2
14 19.09 С 2
{3}
н/о н/о +28.2 +18.0 54 +33 +33 очень
душно
1011.2 947.2
15 19.09 СЗ 2
{4}
н/о н/о +30.6 +18.1 47 +35 +35 очень
душно
1010.4 946.9
16 19.09 СЗ 2
{5}
н/о н/о +31.9 +18.8 46 +37 +37 очень
душно
1009.4 946.2
17 19.09 СЗ 3
{5}
н/о н/о +32.8 +19.0 44 +38 +38 очень
душно
1007.9 945.0
18 19.09 СЗ 3
{5}
н/о н/о +31.4 +18.7 47 +36 +36 очень
душно
1006.9 943.8
19 19.09
{7}
н/о н/о +26.5 +18.2 60 1008.2 944.0
20 19.09 С 1
{4}
н/о н/о +26.1 +18.5 63 +31 +31 очень
душно
1008.0 943.7
21 19.09 С 1
{3}
н/о н/о +26.4 +18.7 63 +31 +31 душно 1008.1 943.9
22 19.09 штиль 0
{2}
н/о н/о +24.8 +19.2 71 +30 +30 душно 1009.0 944.4
23 19.09 штиль 0
{1}
н/о н/о +22.5 +19.9 85 +29 +29 очень
душно
1010.6 945.4
00 20.09 штиль 0
{1}
н/о н/о +21.8 +19.8 88 +27 +27 душно 1011.8 946.4
01 20.09 С 1
{4}
н/о н/о +23.9 +18.8 73 +29 +29 душно 1011.6 946.6
02 20.09 штиль 0
{2}
н/о н/о +21.1 +18.9 87 +25 +25 комфорт 1012.2 946.6
03 20.09 штиль 0
{1}
н/о н/о +20.5 +18.7 89 +24 +24 комфорт 1012.4 946.7
04 20.09 ЮВ 1
{1}
н/о н/о +19.9 +18.4 91 +24 +24 комфорт 1011.7 945.9
05 20.09 штиль 0
{1}
н/о н/о +19.3 +18.0 92 +21 +21 комфорт 1010.9 945.0
06 20.09 штиль 0
{1}
н/о н/о +18.7 +17.7 94 +20 +20 1011.1 945.0
07 20.09 штиль 0 н/о н/о +18.2 +17.1 93 +19 +19 1011.0 944.8
08 20.09 СВ 1
{2}
н/о н/о +19.3 +17.9 92 +23 +23 комфорт 1011.2 945.3
09 20.09 С 1
{2}
н/о н/о +21.8 +16.9 74 +26 +26 душно 1011.5 946.1
10 20.09 СВ 1
{3}
н/о н/о +22.3 +17.1 72 +27 +27 душно 1012.1 946.8
11 20.09 ЮВ 1
{3}
н/о н/о +22.1 +18.6 81 +27 +27 душно 1013.5 948.0
12 20.09 СВ 1
{2}
н/о н/о +26.8 +18.9 62 +32 +32 очень
душно
1013.3 948.8
13 20.09 СЗ 2
{3}
н/о н/о +28.4 +19.0 57 +34 +34 очень
душно
1012.9 948.8
14 20.09 С 1
{4}
н/о н/о +29.3 +20.0 57 +36 +36 очень
душно
1012.7 948.8
15 20.09 СЗ 2
{4}
н/о н/о +30.5 +18.4 48 +35 +35 очень
душно
1011.6 948.0
16 20.09 З 2
{4}
н/о н/о +31.7 +18.4 45 +36 +36 очень
душно
1010.5 947.2
17 20.09 СЗ 2
{5}
н/о н/о +32.3 +17.7 42 +36 +36 очень
душно
1009.3 946.2
18 20.09 З 2
{4}
н/о н/о +32.8 +17.6 40 +37 +37 очень
душно
1007.8 944.9
19 20.09 З 2
{4}
н/о н/о +31.9 +17.5 42 +36 +36 очень
душно
1007.2 944.2
20 20.09 З 2
{4}
н/о н/о +31.0 +18.2 46 +35 +35 очень
душно
1007.0 943.8
21 20.09 З 2
{4}
н/о н/о +30.1 +19.1 52 +36 +36 очень
душно
1007.3 943.9
22 20.09 штиль 0
{3}
н/о н/о +26.7 +20.6 69 +33 +33 очень
душно
1009.1 944.9
23 20.09 СВ 1
{3}
н/о н/о +25.4 +19.1 68 +30 +30 душно 1010.3 945.7
00 21.09 СВ 1
{3}
н/о н/о +24.0 +19.5 76 +29 +29 душно 1010.6 945.7
01 21.09 СВ 1
{3}
н/о н/о +23.0 +19.0 78 +29 +29 очень
душно
1011.2 946.1
02 21.09 штиль 0
{3}
н/о н/о +22.1 +19.0 83 +28 +28 душно 1012.1 946.7
03 21.09 штиль 0
{1}
н/о н/о +20.9 +18.9 88 +25 +25 комфорт 1012.6 946.9
04 21.09 В 1
{2}
н/о н/о +21.2 +18.6 85 +26 +26 душно 1012.5 946.9
05 21.09 СВ 1
{3}
н/о н/о +21.5 +18.8 85 +26 +26 душно 1012.3 946.8
06 21.09 СВ 1
{2}
н/о н/о +21.0 +18.9 88 +27 +27 душно 1012.4 946.8
07 21.09 СВ 1
{3}
н/о н/о +21.3 +19.0 87 +26 +26 душно 1011.8 946.3
08 21.09 штиль 0
{2}
н/о н/о +20.6 +18.7 89 +24 +24 комфорт 1011.8 946.1
09 21.09 СВ 1
{4}
н/о н/о +21.3 +18.8 86 +26 +26 душно 1011.9 946.4
10 21.09 СВ 1
{3}
н/о н/о +20.8 +18.6 87 +26 +26 душно 1012.9 947.2
11 21.09 СВ 1
{3}
н/о н/о +22.3 +18.6 80 +28 +28 душно 1013.1 947.7
12 21.09 СВ 1
{2}
н/о н/о +25.7 +19.6 69 +31 +31 очень
душно
1012.8 948.1
13 21.09 З 1
{3}
н/о н/о +29.5 +17.9 50 +34 +34 очень
душно
1011.6 947.8
14 21.09 З 2
{4}
н/о н/о +31.8 +17.3 42 +36 +36 очень
душно
1011.6 948.3
15 21.09 СЗ 1
{4}
н/о н/о +32.1 +16.8 40 +35 +35 очень
душно
1011.5 948.2
16 21.09 Ю 2
{4}
н/о н/о +25.1 +21.2 79 +32 +32 очень
душно
1012.0 947.3 7
17 21.09 З 1
{2}
н/о н/о +31.7 +18.7 46 +37 +37 очень
душно
1009.5 946.3
18 21.09 З 2
{2}
н/о н/о +31.7 +18.2 45 +36 +36 очень
душно
1008.0 944.9
19 21.09 З 2
{4}
н/о н/о +31.8 +18.7 46 +37 +37 очень
душно
1007.1 944.0
20 21.09 Ю 1
{3}
н/о н/о +27.9 +21.3 67 +35 +35 очень
душно
1007.5 943.6
21 21.09 С 1
{2}
н/о н/о +25.1 +20.4 75 +31 +31 очень
душно
1008.9 944.4
22 21.09 СВ 1
{3}
н/о н/о +23.2 +19.1 78 +30 +30 очень
душно
1009.2 944.2
23 21.09 ЮВ 1
{2}
н/о н/о +22.3 +19.4 84 +28 +28 душно 1010.3 945.1
00 22.09 ЮВ 1
{4}
н/о н/о +22.2 +18.9 82 +28 +28 душно 1010.6 945.3
01 22.09 В 1
{3}
н/о н/о +21.9 +18.7 82 +27 +27 душно 1011.1 945.7
02 22.09 Ю 1
{3}
н/о н/о +21.2 +18.6 85 +26 +26 душно 1011.6 946.1
03 22.09 штиль 0
{1}
н/о н/о +21.2 +19.3 89 +26 +26 душно 1012.4 946.8
04 22.09 ЮВ 1
{1}
н/о н/о +20.7 +18.9 89 +26 +26 душно 1011.8 946.1
05 22.09 штиль 0
{1}
н/о н/о +20.3 +18.9 92 +24 +24 комфорт 1011.5 945.8
06 22.09 штиль 0
{1}
н/о н/о +20.7 +19.2 91 +25 +25 комфорт 1011.0 945.4
07 22.09 В 1
{1}
н/о н/о +21.5 +18.9 85 +26 +26 душно 1010.4 945.0
08 22.09 ЮВ 1
{1}
н/о н/о +21.4 +18.7 85 +26 +26 душно 1010.9 945.4
09 22.09 штиль 0
{1}
н/о н/о +20.1 +18.7 92 +23 +23 комфорт 1011.5 945.7
10 22.09 штиль 0
{1}
н/о н/о +19.9 +18.7 93 +23 +23 комфорт 1012.4 946.5
11 22.09 штиль 0
{1}
н/о н/о +22.3 +20.2 88 +29 +29 очень
душно
1012.5 947.1
12 22.09 СЗ 1
{2}
н/о н/о +27.7 +19.7 62 +34 +34 очень
душно
1011.8 947.6
13 22.09 СЗ 2
{3}
н/о н/о +29.2 +20.3 59 +36 +36 очень
душно
1011.9 948.0
14 22.09 С 1
{3}
н/о н/о +31.4 +18.9 47 +36 +36 очень
душно
1011.2 947.8
15 22.09 СВ 1
{3}
н/о н/о +30.1 +18.8 51 +35 +35 очень
душно
1010.8 947.2
16 22.09 СВ 1
{3}
н/о н/о +32.4 +15.9 37 +35 +35 душно 1009.4 946.3
17 22.09 С 1
{3}
н/о н/о +30.8 +17.6 45 +35 +35 очень
душно
1008.3 945.0
18 22.09 СЗ 2
{4}
н/о н/о +32.2 +18.5 44 +37 +37 очень
душно
1006.4 943.5
19 22.09 Ю 2
{4}
н/о н/о +27.4 +18.7 59 +32 +32 очень
душно
1006.9 943.0
20 22.09 В 1
{5}
н/о н/о +24.9 +19.2 71 +30 +30 душно 1007.7 943.2
21 22.09 В 1
{5}
н/о н/о +22.2 +19.5 85 +28 +28 душно 1007.1 942.1 0.4
22 22.09 С 2
{5}
н/о н/о +22.3 +19.5 84 +28 +28 душно 1009.0 943.9
23 22.09 С 1
{4}
н/о н/о +21.3 +18.6 85 +26 +26 душно 1009.6 944.2
00 23.09 штиль 0
{1}
н/о н/о +20.6 +19.0 91 +24 +24 комфорт 1010.0 944.4

 

Местоположение метеостанции Comodoro (Бразилия): широта -13.72 долгота -59.77 высота над уровнем моря 593 м.

В архиве по умолчанию представлена погода в Comodoro за последнюю неделю. Архивные данные за месяц целиком и за предыдущие месяцы, начиная с января 2011 года, Вы можете получить, выбрав интересующий диапазон дат из раскрывающегося списка и нажав кнопку "Ввод!".


*Определитесь, кто Вы:
робот инопланетянин человек

Внимание! Время в таблицах - всемирное. Для получения местного времени необходимо прибавить поправку, которая в Comodoro равна -3 ч.

Смотрите также архив погоды в соседних городах и на ближайших метеорологических станциях:

Погода в Vilhena (Бразилия) (118 км)
Погода в Vilhena (Бразилия) (119 км)
Погода в Vila Bela da S Trind (Бразилия) (151 км)
Погода в Pontes E Lacerda (Бразилия) (176 км)
Погода в Campo Novo dos Parecis (Бразилия) (210 км)
Погода в Novo Mundo (Бразилия) (214 км)
Погода в Salto do Ceu (Бразилия) (236 км)
Погода в Tangara da Serra (Бразилия) (273 км)
Погода в Juina (Бразилия) (282 км)
Погода в Nova Maringa (Бразилия) (299 км)

Пояснения к столбцам:

Ветер - указаны скорость ветра в м/с - средняя за 10 мин, порывы в срок и между сроками (в фигурных скобках) и направление, откуда дует ветер: С - северный, СВ - северо-восточный, В - восточный, ЮВ - юго-восточный, Ю - южный, ЮЗ - юго-западный, З - западный, СЗ - северо-западный.
Видимость - горизонтальная дальность видимости в метрах или километрах. При видимости от 1 до 10 км при отсутствии осадков обычно наблюдается дымка, при ухудшении видимости до 1 км и менее - туман. В сухую погоду видимость может ухудшаться дымом, пылью или мглою.
Явления - указаны атмосферные явления, наблюдавшиеся в срок или в последний час перед сроком; фигурными скобками обозначены явления, наблюдавшиеся между сроками (за 1-3 часа до срока); квадратными скобками обозначены град или гололедные отложения с указанием их диаметра в мм.
Облачность - указаны через наклонную черту общая и нижняя облачность в баллах и высота нижней границы облаков в метрах; квадратными скобками обозначены формы облаков: Ci - перистые, Cs - перисто-слоистые, Cc - перисто-кучевые, Ac - высококучевые, As - высокослоистые, Sc - слоисто-кучевые, Ns - слоисто-дождевые, Cu - кучевые, Cb - кучево-дождевые. Подробнее классификацию облаков см. в Атласе облаков (PDF).
T - Температура воздуха - температура, измеренная на высоте 2 м над землей.
Td - Температура точки росы - температура, при понижении до которой содержащийся в воздухе водяной пар достигнет насыщения.
f - Относительная влажность воздуха - влажноcть воздуха, измеренная на высоте 2 м над землей.
Te - Эффективная температура - температура, которую ощущает одетый по сезону человек в тени. Характеристика душности погоды. При расчете учитывается влияние влажности воздуха и скорости ветра на теплоощущения человека.
Tes - Эффективная температура на солнце - температура, которую ощущает человек, с поправкой на солнечный нагрев. Характеристика знойности погоды. Зависит от высоты солнца над горизонтом, облачности и скорости ветра. Ночью, в пасмурную погоду, а также при ветре 12 м/с и более поправка равна нулю.
P - Атмосферное давление - приведенное к уровню моря атмосферное давление.
Po - Атмосферное давление - измеренное на уровне метеостанции атмосферное давление.
Tmin - Минимальная температура - минимум температуры воздуха на высоте 2 м над землей.
Tmax - Максимальная температура - максимум температуры воздуха на высоте 2 м над землей.
R - Количество осадков - Количество выпавших осадков за период времени, мм. При наведении курсора мыши на число - период времени, за который выпало указанное количество осадков.
R24 - Количество осадков - Количество выпавших осадков за 24 часа, мм.
S - Снежный покров - Высота снежного покрова, см. При наведении курсора мыши на число - состояние снежного покрова и степень покрытия местности в баллах.